Starlink 35433

operational
NORAD ID: 65870 Int'l Des: 2025-223 Owner: SPXS Country: US Constellation: starlink
NOTLE

About Starlink 35433

Description loading...

Live Position

Loading 3D Globe...

Upcoming Passes

Altitude History

Altitude vs Time

uPlot chart will show altitude changes over time

Two-Line Element Set

1 65870U 25223S 25310.52882640 .00069793 00000-0 17350-2 0 9998
2 65870 53.1577 148.0506 0003329 82.5615 277.5768 15.39684783 5331
Epoch: Nov 6, 2025 • Age: 14 hours

Current Status

Altitude 447.7 km
Velocity 7.65 km/s
Sub-Earth Point 35.28°N, 86.83°E
Launch Date Oct 3, 2025
Age 34 days
Type internet

Technical Details

Classification Payload
Mass 575.00 kg
Dry Mass 530.00 kg
Total Mass 575.00 kg
Length 0.30 m
Diameter 4.10 m
Span 29.00 m
Shape Box + pan
Manufacturer SPXS
Bus Type Starlink V2MO
Phase Status In Orbit
Owner/State SPXS/US

Large Constellations

Loading constellations...